Location: Newark
(42.8481°N, 0.4872°E)
Time: 18:47:12
(UTC+00:00)

Vanguard 1 - Pass Details

Date: 03 November 2020
Orbit: 650 x 3833 km, 34.2° (Epoch: 23 November)

Event Time Altitude Azimuth Distance (km) Brightness Sun altitude
Rises 18:32:09 0° 283° (WNW) 7,857 16.0 -19.6°
Reaches altitude 10° 18:39:52 10° 271° (W) 6,508 15.4 -21.0°
Maximum altitude 18:52:12 21° 233° (SW) 4,774 14.1 -23.2°
Drops below altitude 10° 19:01:25 10° 191° (S) 4,683 13.6 -24.9°
Sets 19:05:45 0° 175° (S) 5,175 13.7 -25.7°
